Regional Weather Roundup
Issued by NWS Sioux Falls, SD

Home | Current Version | Previous Version | Graphics & Text | Print | Product List | Glossary On
Versions: 1 2 3 4 5 6 7 8 9 10 11 12 13 14 15 16 17 18 19 20 21 22 23 24 25 26 27 28 29 30 31 32 33 34 35 36 37 38 39 40 41 42 43 44 45 46 47 48 49 50
000
ASUS43 KFSD 230810
RWRFSD

WEATHER ROUNDUP FOR SE SOUTH DAKOTA/SW MINNESOTA/NW IOWA
NATIONAL WEATHER SERVICE SIOUX FALLS SD
300 AM CDT THU OCT 23 2014

NOTE: "FAIR" INDICATES FEW OR NO CLOUDS BELOW 12,000 FEET WITH NO
SIGNIFICANT WEATHER AND OR OBSTRUCTIONS TO VISIBILITY.


SDZ038>040-050-052>070-230900-
SOUTHEAST SOUTH DAKOTA

CITY           SKY/WX    TMP DP  RH WIND       PRES   REMARKS
CHAMBERLAIN    CLEAR     41  37  87 CALM      30.01S
HURON          CLEAR     43  42  97 S6        29.98S
MADISON        FOG       46  46 100 SW6       30.01S VSB 1/4
MITCHELL       CLEAR     42  41  96 SW3       30.01S FOG
SIOUX FALLS    FOG       47  47 100 S3        30.02R VSB 1/4
WINNER         FAIR      50  39  66 SW9       30.03R
YANKTON        MOCLDY    45  43  93 CALM      30.03R VSB 1/2
$$

MNZ071-072-080-081-089-090-097-098-230900-
SOUTHWEST MINNESOTA

CITY           SKY/WX    TMP DP  RH WIND       PRES   REMARKS
FAIRMONT       CLOUDY    54  48  82 S8        30.02S
JACKSON        CLOUDY    59  55  88 SW6       30.01S
LUVERNE        FOG       54  52  94 W5        30.03R VSB 1/4
MARSHALL       CLEAR     52  46  82 W8        29.98S
MONTEVIDEO     CLEAR     52  52 100 W3        29.99R
PIPESTONE      FOG       52  50  93 W6        30.01S VSB 1/4
REDWOOD FALLS  MOCLDY    55  53  93 SW9       29.99R
TRACY          PTCLDY    52  51  95 SW8       30.00R
WINDOM         CLOUDY    55  54  94 SW6       30.01R
WORTHINGTON    CLOUDY    54  52  94 W5        30.03R
$$

IAZ001>003-012>014-020>022-031-032-NEZ013-014-SDZ071-230900-
NORTHWEST IOWA

CITY           SKY/WX    TMP DP  RH WIND       PRES   REMARKS
CHEROKEE       LGT RAIN  58  58 100 CALM      30.01S
DENISON        CLOUDY    57  57 100 S10G18    30.01R
ESTHERVILLE    CLOUDY    55  54  96 S6        30.01S FOG
LE MARS        CLOUDY    57  57 100 CALM      30.03R FOG
ORANGE CITY    CLOUDY    57  54  88 W3        30.02S FOG
SHELDON        CLOUDY    54  54 100 NW5       30.01S FOG
SIOUX CITY     CLOUDY    57  56  96 NW7       30.03R
SPENCER        CLOUDY    57  55  93 S3        30.01S
STORM LAKE     LGT RAIN  57  55  94 SW12G17   30.02R
$$

ABBREVIATIONS USED IN REMARKS
   TC - TEMPERATURE IN CELSIUS
  WCI - WIND CHILL INDEX
   HX - HEAT INDEX
  VSB - VISIBILITY




USA.gov is the U.S. government's official web portal to all federal, state and local government web resources and services.